Location: Berlin
(52.5171°N, 13.3759°E)
Time: 22:59:38
(UTC+02:00)

ISS - Visible Passes

Search period start: 25 September 2020 00:00
Search period end: 05 October 2020 00:00
Orbit: 419 x 420 km, 51.6° (Epoch: 26 September)

Date Brightness Start Highest point End Pass type
(mag) Time Alt. Az. Time Alt. Az. Time Alt. Az.
25 Sep -3.9 20:58:39 10° W 21:02:02 78° S 21:02:08 77° SSE visible
26 Sep -3.8 20:11:17 10° W 20:14:40 78° S 20:16:31 25° E visible
26 Sep -1.5 21:48:04 10° W 21:49:28 22° W 21:49:28 22° W visible
27 Sep -3.7 19:23:54 10° WSW 19:27:17 74° S 19:30:39 10° E visible
27 Sep -3.6 21:00:40 10° W 21:03:50 62° SW 21:03:50 62° SW visible
28 Sep -3.7 20:13:15 10° W 20:16:38 73° S 20:18:11 29° ESE visible
28 Sep -1.1 21:50:09 10° W 21:51:09 17° W 21:51:09 17° W visible
29 Sep -3.7 19:25:51 10° W 19:29:14 78° S 19:32:33 10° E visible
29 Sep -2.8 21:02:40 10° W 21:05:30 39° SW 21:05:30 39° SW visible
30 Sep -3.3 20:15:13 10° W 20:18:32 53° SSW 20:19:53 30° SE visible
30 Sep -0.6 21:52:33 10° W 21:52:51 11° WSW 21:52:51 11° WSW visible
01 Oct -3.5 19:27:47 10° W 19:31:08 64° SSW 19:34:17 11° ESE visible
01 Oct -1.9 21:04:49 10° W 21:07:15 23° SW 21:07:15 23° SW visible
02 Oct -2.4 20:17:13 10° W 20:20:16 31° SSW 20:21:42 22° SSE visible
03 Oct -2.7 19:29:41 10° W 19:32:54 41° SSW 19:36:06 10° SE visible
03 Oct -1.0 21:07:44 10° WSW 21:09:03 12° SW 21:09:10 12° SW visible
04 Oct -1.3 20:19:32 10° W 20:21:49 17° SW 20:23:45 11° S visible
